Starlink 3588

operational
NORAD ID: 51869 Int'l Des: 2022-022 Owner: SPXS Country: US Constellation: starlink
LEOCIRCULAR

About Starlink 3588

Description loading...

Live Position

Loading 3D Globe...

Upcoming Passes

Altitude History

Altitude vs Time

uPlot chart will show altitude changes over time

Two-Line Element Set

1 51869U 22022T 25304.11874222 .00000702 00000-0 62210-4 0 9992
2 51869 53.2177 230.7892 0001489 90.6918 269.4245 15.08847015203558
Epoch: Oct 31, 2025 • Age: 13 hours

Current Status

Altitude 542.1 km
Velocity 7.60 km/s
Sub-Earth Point 37.93°N, 90.55°E
Launch Date Mar 3, 2022
Age 3.6 years
Type internet

Technical Details

Classification Payload
Mass 297.00 kg
Dry Mass 275.00 kg
Total Mass 297.00 kg
Length 0.20 m
Diameter 2.80 m
Span 9.00 m
Shape Box + pan
Manufacturer SPXS
Bus Type Starlink
Phase Status In Orbit
Owner/State SPXS/US

Large Constellations

Loading constellations...